Time,TemperatureF,DewpointF,PressureIn,WindDirection,WindDirectionDegrees,WindSpeedMPH,WindSpeedGustMPH,Humidity,HourlyPrecipIn,Conditions,Clouds,dailyrainin,SoftwareType,DateUTC
2013-06-20 00:02:00,62.0,-99.9,30.15,SE,143,4.0,5.0,-999,-99.99,,,-99.99,,2013-06-20 04:02:00,
2013-06-20 00:12:00,62.0,-99.9,30.16,SE,137,5.0,6.0,-999,-99.99,,,-99.99,,2013-06-20 04:12:00,
2013-06-20 00:23:00,62.0,-99.9,30.16,SE,135,4.0,5.0,-999,-99.99,,,-99.99,,2013-06-20 04:23:00,
2013-06-20 00:34:00,62.0,-99.9,30.16,SE,132,5.0,6.0,-999,-99.99,,,-99.99,,2013-06-20 04:34:00,
2013-06-20 00:44:00,62.0,-99.9,30.16,SE,132,4.0,5.0,-999,-99.99,,,-99.99,,2013-06-20 04:44:00,
2013-06-20 00:54:00,62.0,-99.9,30.17,SE,136,3.0,4.0,-999,-99.99,,,-99.99,,2013-06-20 04:54:00,
2013-06-20 01:02:00,62.0,-99.9,30.17,SE,136,3.0,4.0,-999,-99.99,,,-99.99,,2013-06-20 05:02:00,
2013-06-20 01:12:00,62.0,-99.9,30.18,SE,145,3.0,4.0,-999,-99.99,,,-99.99,,2013-06-20 05:12:00,
2013-06-20 01:22:00,62.0,-99.9,30.18,SSE,159,3.0,3.0,-999,-99.99,,,-99.99,,2013-06-20 05:22:00,
2013-06-20 01:33:00,62.0,-99.9,30.18,SSE,153,3.0,4.0,-999,-99.99,,,-99.99,,2013-06-20 05:33:00,
2013-06-20 01:44:00,62.0,-99.9,30.18,SSE,151,2.0,4.0,-999,-99.99,,,-99.99,,2013-06-20 05:44:00,
2013-06-20 01:53:00,61.0,-99.9,30.18,SE,142,3.0,4.0,-999,-99.99,,,-99.99,,2013-06-20 05:53:00,
2013-06-20 02:02:00,62.0,-99.9,30.18,SE,142,2.0,3.0,-999,-99.99,,,-99.99,,2013-06-20 06:02:00,
2013-06-20 02:12:00,61.0,-99.9,30.18,SSE,149,3.0,4.0,-999,-99.99,,,-99.99,,2013-06-20 06:12:00,
2013-06-20 02:22:00,61.0,-99.9,30.18,SSE,149,3.0,4.0,-999,-99.99,,,-99.99,,2013-06-20 06:22:00,
2013-06-20 02:34:00,61.0,-99.9,30.18,SE,139,2.0,2.0,-999,-99.99,,,-99.99,,2013-06-20 06:34:00,
2013-06-20 02:43:00,61.0,-99.9,30.18,SSE,158,2.0,2.0,-999,-99.99,,,-99.99,,2013-06-20 06:43:00,
2013-06-20 02:53:00,60.0,-99.9,30.19,SSE,158,2.0,3.0,-999,-99.99,,,-99.99,,2013-06-20 06:53:00,
2013-06-20 03:02:00,60.0,-99.9,30.19,SE,141,2.0,3.0,-999,-99.99,,,-99.99,,2013-06-20 07:02:00,
2013-06-20 03:12:00,60.0,-99.9,30.18,SE,142,2.0,3.0,-999,-99.99,,,-99.99,,2013-06-20 07:12:00,
2013-06-20 03:23:00,60.0,-99.9,30.18,SSE,158,2.0,2.0,-999,-99.99,,,-99.99,,2013-06-20 07:23:00,
2013-06-20 03:34:00,60.0,-99.9,30.18,SE,142,2.0,2.0,-999,-99.99,,,-99.99,,2013-06-20 07:34:00,
2013-06-20 03:44:00,60.0,-99.9,30.18,SE,130,1.0,2.0,-999,-99.99,,,-99.99,,2013-06-20 07:44:00,
2013-06-20 03:53:00,60.0,-99.9,30.19,SSE,153,2.0,2.0,-999,-99.99,,,-99.99,,2013-06-20 07:53:00,
2013-06-20 04:02:00,60.0,-99.9,30.19,SE,140,2.0,2.0,-999,-99.99,,,-99.99,,2013-06-20 08:02:00,
2013-06-20 04:12:00,60.0,-99.9,30.19,SE,142,2.0,2.0,-999,-99.99,,,-99.99,,2013-06-20 08:12:00,
2013-06-20 04:22:00,60.0,-99.9,30.19,SE,142,2.0,2.0,-999,-99.99,,,-99.99,,2013-06-20 08:22:00,
2013-06-20 04:34:00,60.0,-99.9,30.19,ESE,123,1.0,2.0,-999,-99.99,,,-99.99,,2013-06-20 08:34:00,
2013-06-20 04:43:00,60.0,-99.9,30.19,ESE,119,2.0,2.0,-999,-99.99,,,-99.99,,2013-06-20 08:43:00,
2013-06-20 04:53:00,59.0,-99.9,30.19,SE,128,1.0,2.0,-999,-99.99,,,-99.99,,2013-06-20 08:53:00,
2013-06-20 05:02:00,59.0,-99.9,30.19,SE,128,1.0,2.0,-999,-99.99,,,-99.99,,2013-06-20 09:02:00,
2013-06-20 05:12:00,60.0,-99.9,30.20,SE,128,2.0,2.0,-999,-99.99,,,-99.99,,2013-06-20 09:12:00,
2013-06-20 05:22:00,60.0,-99.9,30.20,ESE,119,2.0,2.0,-999,-99.99,,,-99.99,,2013-06-20 09:22:00,
2013-06-20 05:34:00,59.0,-99.9,30.20,ESE,117,2.0,3.0,-999,-99.99,,,-99.99,,2013-06-20 09:34:00,
2013-06-20 05:43:00,59.0,-99.9,30.21,ESE,103,2.0,2.0,-999,-99.99,,,-99.99,,2013-06-20 09:43:00,
2013-06-20 05:52:00,60.0,-99.9,30.21,ESE,108,1.0,2.0,-999,-99.99,,,-99.99,,2013-06-20 09:52:00,
2013-06-20 06:02:00,59.0,-99.9,30.22,ESE,114,2.0,2.0,-999,-99.99,,,-99.99,,2013-06-20 10:02:00,
2013-06-20 06:12:00,59.0,-99.9,30.22,ESE,107,2.0,2.0,-999,-99.99,,,-99.99,,2013-06-20 10:12:00,
2013-06-20 06:22:00,59.0,-99.9,30.22,East,98,2.0,3.0,-999,-99.99,,,-99.99,,2013-06-20 10:22:00,
2013-06-20 06:34:00,59.0,-99.9,30.22,ESE,108,2.0,2.0,-999,-99.99,,,-99.99,,2013-06-20 10:34:00,
2013-06-20 06:44:00,61.0,-99.9,30.22,ESE,111,1.0,2.0,-999,-99.99,,,-99.99,,2013-06-20 10:44:00,
2013-06-20 06:53:00,61.0,-99.9,30.22,ESE,108,2.0,2.0,-999,-99.99,,,-99.99,,2013-06-20 10:53:00,
2013-06-20 07:02:00,61.0,-99.9,30.22,SE,125,2.0,2.0,-999,-99.99,,,-99.99,,2013-06-20 11:02:00,
2013-06-20 07:12:00,61.0,-99.9,30.22,SE,125,2.0,2.0,-999,-99.99,,,-99.99,,2013-06-20 11:12:00,
2013-06-20 07:22:00,62.0,-99.9,30.23,SE,124,1.0,2.0,-999,-99.99,,,-99.99,,2013-06-20 11:22:00,
2013-06-20 07:34:00,63.0,-99.9,30.23,East,93,2.0,2.0,-999,-99.99,,,-99.99,,2013-06-20 11:34:00,
2013-06-20 07:43:00,64.0,-99.9,30.23,SE,127,1.0,1.0,-999,-99.99,,,-99.99,,2013-06-20 11:43:00,
2013-06-20 07:53:00,65.0,-99.9,30.24,ESE,122,2.0,3.0,-999,-99.99,,,-99.99,,2013-06-20 11:53:00,
2013-06-20 08:02:00,65.0,-99.9,30.24,East,94,2.0,3.0,-999,-99.99,,,-99.99,,2013-06-20 12:02:00,
2013-06-20 08:12:00,65.0,-99.9,30.24,East,94,2.0,3.0,-999,-99.99,,,-99.99,,2013-06-20 12:12:00,
2013-06-20 08:22:00,67.0,-99.9,30.24,East,89,1.0,2.0,-999,-99.99,,,-99.99,,2013-06-20 12:22:00,
2013-06-20 08:34:00,67.0,-99.9,30.24,ESE,117,2.0,2.0,-999,-99.99,,,-99.99,,2013-06-20 12:34:00,
2013-06-20 08:43:00,67.0,-99.9,30.25,SE,135,4.0,4.0,-999,-99.99,,,-99.99,,2013-06-20 12:43:00,
2013-06-20 08:53:00,67.0,-99.9,30.25,SSE,164,2.0,3.0,-999,-99.99,,,-99.99,,2013-06-20 12:53:00,
2013-06-20 09:02:00,67.0,-99.9,30.25,SSE,164,2.0,3.0,-999,-99.99,,,-99.99,,2013-06-20 13:02:00,
2013-06-20 09:12:00,68.0,-99.9,30.26,South,176,4.0,5.0,-999,-99.99,,,-99.99,,2013-06-20 13:12:00,
2013-06-20 09:22:00,68.0,-99.9,30.26,SSE,161,5.0,8.0,-999,-99.99,,,-99.99,,2013-06-20 13:22:00,
2013-06-20 09:33:00,68.0,-99.9,30.26,South,185,5.0,6.0,-999,-99.99,,,-99.99,,2013-06-20 13:33:00,
2013-06-20 09:43:00,69.0,-99.9,30.27,South,169,5.0,6.0,-999,-99.99,,,-99.99,,2013-06-20 13:43:00,
2013-06-20 09:53:00,69.0,-99.9,30.27,South,182,6.0,9.0,-999,-99.99,,,-99.99,,2013-06-20 13:53:00,
2013-06-20 10:02:00,69.0,-99.9,30.27,SE,131,6.0,8.0,-999,-99.99,,,-99.99,,2013-06-20 14:02:00,
2013-06-20 10:11:00,69.0,-99.9,30.27,SE,131,6.0,8.0,-999,-99.99,,,-99.99,,2013-06-20 14:11:00,
2013-06-20 10:22:00,69.0,-99.9,30.27,SE,140,8.0,10.0,-999,-99.99,,,-99.99,,2013-06-20 14:22:00,
2013-06-20 10:33:00,69.0,-99.9,30.27,SSE,152,8.0,10.0,-999,-99.99,,,-99.99,,2013-06-20 14:33:00,
2013-06-20 10:42:00,69.0,-99.9,30.27,South,179,7.0,8.0,-999,-99.99,,,-99.99,,2013-06-20 14:42:00,
2013-06-20 10:53:00,70.0,-99.9,30.27,SE,140,6.0,8.0,-999,-99.99,,,-99.99,,2013-06-20 14:53:00,
2013-06-20 11:02:00,70.0,-99.9,30.27,South,175,7.0,9.0,-999,-99.99,,,-99.99,,2013-06-20 15:02:00,
2013-06-20 11:12:00,70.0,-99.9,30.27,South,175,7.0,9.0,-999,-99.99,,,-99.99,,2013-06-20 15:12:00,
2013-06-20 11:22:00,70.0,-99.9,30.28,South,172,7.0,9.0,-999,-99.99,,,-99.99,,2013-06-20 15:22:00,
2013-06-20 11:34:00,70.0,-99.9,30.28,SSE,149,6.0,8.0,-999,-99.99,,,-99.99,,2013-06-20 15:34:00,
2013-06-20 11:43:00,70.0,-99.9,30.29,SSE,167,6.0,9.0,-999,-99.99,,,-99.99,,2013-06-20 15:43:00,
2013-06-20 11:53:00,70.0,-99.9,30.29,South,182,7.0,10.0,-999,-99.99,,,-99.99,,2013-06-20 15:53:00,
2013-06-20 12:02:00,70.0,-99.9,30.29,South,184,8.0,11.0,-999,-99.99,,,-99.99,,2013-06-20 16:02:00,
2013-06-20 12:12:00,70.0,-99.9,30.29,South,171,7.0,10.0,-999,-99.99,,,-99.99,,2013-06-20 16:12:00,
2013-06-20 12:22:00,70.0,-99.9,30.29,SSE,161,7.0,9.0,-999,-99.99,,,-99.99,,2013-06-20 16:22:00,
2013-06-20 12:33:00,71.0,-99.9,30.29,SSW,195,6.0,9.0,-999,-99.99,,,-99.99,,2013-06-20 16:33:00,
2013-06-20 12:43:00,71.0,-99.9,30.29,South,176,7.0,9.0,-999,-99.99,,,-99.99,,2013-06-20 16:43:00,
2013-06-20 12:53:00,71.0,-99.9,30.29,SSE,162,7.0,9.0,-999,-99.99,,,-99.99,,2013-06-20 16:53:00,
2013-06-20 13:02:00,71.0,-99.9,30.29,SSE,162,7.0,9.0,-999,-99.99,,,-99.99,,2013-06-20 17:02:00,
2013-06-20 13:12:00,71.0,-99.9,30.29,South,185,7.0,8.0,-999,-99.99,,,-99.99,,2013-06-20 17:12:00,
2013-06-20 13:22:00,71.0,-99.9,30.29,SE,144,6.0,9.0,-999,-99.99,,,-99.99,,2013-06-20 17:22:00,
2013-06-20 13:33:00,71.0,-99.9,30.29,SSE,157,7.0,11.0,-999,-99.99,,,-99.99,,2013-06-20 17:33:00,
2013-06-20 13:43:00,71.0,-99.9,30.28,SSE,164,7.0,10.0,-999,-99.99,,,-99.99,,2013-06-20 17:43:00,
2013-06-20 13:53:00,71.0,-99.9,30.28,SE,145,8.0,12.0,-999,-99.99,,,-99.99,,2013-06-20 17:53:00,
2013-06-20 14:01:00,71.0,-99.9,30.28,SE,145,8.0,12.0,-999,-99.99,,,-99.99,,2013-06-20 18:01:00,
2013-06-20 14:12:00,71.0,-99.9,30.28,SSE,152,7.0,9.0,-999,-99.99,,,-99.99,,2013-06-20 18:12:00,
2013-06-20 14:22:00,71.0,-99.9,30.28,South,190,8.0,11.0,-999,-99.99,,,-99.99,,2013-06-20 18:22:00,
2013-06-20 14:34:00,71.0,-99.9,30.27,SSE,156,8.0,11.0,-999,-99.99,,,-99.99,,2013-06-20 18:34:00,
2013-06-20 14:43:00,70.0,-99.9,30.27,SSE,152,10.0,12.0,-999,-99.99,,,-99.99,,2013-06-20 18:43:00,
2013-06-20 14:53:00,70.0,-99.9,30.27,SSE,152,10.0,12.0,-999,-99.99,,,-99.99,,2013-06-20 18:53:00,
2013-06-20 15:02:00,70.0,-99.9,30.27,SSE,152,10.0,12.0,-999,-99.99,,,-99.99,,2013-06-20 19:02:00,
2013-06-20 15:11:00,70.0,-99.9,30.27,SSE,152,10.0,12.0,-999,-99.99,,,-99.99,,2013-06-20 19:11:00,
2013-06-20 15:44:00,71.0,-99.9,30.27,SSE,160,8.0,10.0,-999,-99.99,,,-99.99,,2013-06-20 19:44:00,
2013-06-20 15:53:00,71.0,-99.9,30.27,South,179,9.0,12.0,-999,-99.99,,,-99.99,,2013-06-20 19:53:00,
2013-06-20 16:02:00,71.0,-99.9,30.27,SSE,147,8.0,13.0,-999,-99.99,,,-99.99,,2013-06-20 20:02:00,
2013-06-20 16:11:00,71.0,-99.9,30.27,South,174,8.0,11.0,-999,-99.99,,,-99.99,,2013-06-20 20:11:00,
2013-06-20 16:43:00,71.0,-99.9,30.27,SSE,166,5.0,7.0,-999,-99.99,,,-99.99,,2013-06-20 20:43:00,
2013-06-20 16:53:00,71.0,-99.9,30.27,SE,143,6.0,8.0,-999,-99.99,,,-99.99,,2013-06-20 20:53:00,